Regional Weather Roundup
Issued by NWS

Home | Current Version | Previous Version | Text Only | Print | Product List | Glossary Off
Versions: 1 2 3 4 5 6 7 8 9 10 11 12 13 14 15 16 17 18 19 20 21 22 23 24 25 26 27 28 29 30 31 32 33 34 35 36 37 38 39 40 41 42 43 44 45 46 47 48 49 50

000
ASUS45 KBOU 260507
RWRCO

WEATHER ROUNDUP FOR COLORADO
NATIONAL WEATHER SERVICE DENVER/BOULDER CO
1100 PM MDT SAT APR 25 2015

NOTE: "FAIR" INDICATES FEW OR NO CLOUDS BELOW 12000 FEET WITH NO
SIGNIFICANT WEATHER AND/OR OBSTRUCTIONS TO VISIBILITY.

COZ001>005-013-030-031-260600-
...NORTHWEST COLORADO...

CITY           SKY/WX    TMP DP  RH WIND       PRES   REMARKS
CRAIG          CLOUDY    45  36  70 E3        29.78F
HAYDEN         CLOUDY    41  34  75 CALM      29.81F
MEEKER         CLOUDY    43  37  79 NE8       29.77F
MOUNT WERNER   NOT AVBL
STEAMBOAT SPGS CLOUDY    40  37  90 SE3       29.82S
WALDEN         CLOUDY    36  32  87 SE12G17   29.85S
$$

COZ006>008-011-260600-
...WEST CENTRAL VALLEYS...

CITY           SKY/WX    TMP DP  RH WIND       PRES   REMARKS
GRAND JUNCTION LGT RAIN  45  45 100 N3        29.74S
MONTROSE       CLOUDY    46  39  76 SE15      29.79F
EAGLE          CLOUDY    41  39  93 CALM      29.87R
RIFLE          CLOUDY    45  41  86 CALM      29.77F
DELTA          NOT AVBL
NUCLA          RAIN      45  37  76 SW7       29.83R
$$

COZ017>023-064>068-260600-
...SOUTHWEST COLORADO...

CITY           SKY/WX    TMP DP  RH WIND       PRES   REMARKS
DURANGO        MOCLDY    40  35  83 CALM      29.81F
CORTEZ         CLOUDY    44  39  82 S5        29.82R
PAGOSA SPRINGS CLOUDY    42  35  77 NW5       29.87R
TELLURIDE      FLURRIES  35  34  96 E5        29.87F WCI  31
WOLF CREEK PAS NOT AVBL
$$

COZ009-010-012-014-032>034-037-058>063-260600-
...CENTRAL COLORADO...

CITY           SKY/WX    TMP DP  RH WIND       PRES   REMARKS
ASPEN          CLOUDY    36  35  96 CALM      29.83S
BUENA VISTA    CLOUDY    39  36  88 W8        29.86S
COPPER MTN     CLOUDY    32  28  86 S16G22    29.96R WCI  21
BERTHOUD PASS  SNOW      23  16  74 MISG      29.97F VSB<1/4
COTTONWOOD PAS CLOUDY    37  32  81 CALM      29.91S
GUNNISON       CLOUDY    43  34  70 NE6       29.86S
KREMMLING      DRIZZLE   37  34  87 CALM      29.85F
LEADVILLE      CLOUDY    31  30  96 CALM      29.89F
MONARCH PASS   LGT SNOW  28  25  86 SW22      30.07S WCI  15
SALIDA         CLOUDY    50  30  45 CALM      29.91R
SUNLIGHT       CLOUDY    32  30  93 CALM      29.93F
WILKERSON PASS CLOUDY    32  27  80 S8G18     29.98S WCI  25
$$

COZ069>075-260600-
...SAN LUIS VALLEY/SANGRE DE CRISTO MOUNTAINS...

CITY           SKY/WX    TMP DP  RH WIND       PRES   REMARKS
ALAMOSA        PTCLDY    36  26  67 S6        29.84S
LA VETA PASS   PTCLDY    34  25  69 S8G17     29.92F WCI  27
SAGUACHE       CLOUDY    45  28  53 CALM      29.85R
$$

COZ035-036-038>040-260600-
...NORTHERN COLORADO FRONT RANGE...

CITY           SKY/WX    TMP DP  RH WIND       PRES   REMARKS
DENVER INTL AP CLOUDY    49  41  74 N7        29.79R
DMNS CITY PARK   N/A     50  40  67 N3        29.79S
AURORA         NOT AVBL
FRONT RANGE AP NOT AVBL
ERIE MUNI ARPT CLOUDY    49  44  81 N3        29.79R
BOULDER MUN AP CLOUDY    50  43  76 CALM      29.79S
CENTENNIAL     CLOUDY    50  37  61 NW10      29.78S
BROOMFIELD     NOT AVBL
FORT COLLINS   CLOUDY    48  43  81 N9        29.79F
LONGMONT       CLOUDY    51  44  75 NE3       29.82R
$$

COZ041-046-047-076>085-087-088-260600-
...PIKES PEAK/PALMER DIVIDE AND SOUTHERN FOOTHILLS...

CITY           SKY/WX    TMP DP  RH WIND       PRES   REMARKS
COLO. SPRINGS  CLOUDY    54  30  40 SE10      29.79R
A. F. ACADEMY  NOT AVBL
ELLICOTT       CLOUDY   N/A N/A N/A SE12      29.78R
FALCON         CLOUDY    49  30  46 SE7       29.82F
FORT CARSON    NOT AVBL
LIMON          CLOUDY    53  40  61 SE10      29.76S
MONUMENT HILL  CLOUDY    45  32  61 CALM      29.83R
TRINIDAD       CLEAR     51  28  41 W9        29.73S
$$

COZ042>045-048>051-090-091-260600-
...NORTHEAST COLORADO...

CITY           SKY/WX    TMP DP  RH WIND       PRES   REMARKS
GREELEY ARPT   CLOUDY    50  39  66 E8        29.79R
AKRON          CLOUDY    49  45  86 N12       29.80R
BURLINGTON     CLOUDY    53  50  89 SE23G30   29.76S
WRAY           CLOUDY    53  49  87 E15       29.81R
STERLING       RAIN      48  46  93 NE17      29.81R
HOLYOKE        CLOUDY    54  46  76 E10       29.87R
FORT MORGAN    TSTM      48  45  87 NE9       29.80R
$$

COZ086-089-092>099-260600-
...SOUTHEAST COLORADO...

CITY           SKY/WX    TMP DP  RH WIND       PRES   REMARKS
PUEBLO         CLOUDY    60  33  36 E12       29.70R
LA JUNTA       PTCLDY    59  38  45 E16       29.68S
LAMAR          PTCLDY    58  46  64 E17G23    29.69R
SPRINGFIELD      N/A     49  35  58 E8        29.71S
$$



USA.gov is the U.S. government's official web portal to all federal, state and local government web resources and services.